| time (UTC) | temp F | wind direction | speed MPH | gust MPH | rain 1hr in | rain 24hr in | rain mn in | humidity % | barometer mb |
| 20260510122703 | 78 | 112 | 4.0 | 10.0 | 0.00 | 0.00 | 0.00 | 41 | 1008.1 |
| 20260510121703 | 77 | 112 | 7.0 | 13.0 | 0.00 | 0.00 | 0.00 | 40 | 1008.2 |
| 20260510120703 | 78 | 90 | 5.0 | 10.0 | 0.00 | 0.00 | 0.00 | 40 | 1008.4 |
| 20260510115703 | 78 | 135 | 3.0 | 8.0 | 0.00 | 0.00 | 0.00 | 41 | 1008.5 |
| 20260510114703 | 77 | 135 | 6.0 | 13.0 | 0.00 | 0.00 | 0.00 | 41 | 1008.5 |
| 20260510113703 | 77 | 112 | 5.0 | 13.0 | 0.00 | 0.00 | 0.00 | 40 | 1008.7 |
| 20260510112703 | 76 | 90 | 7.0 | 12.0 | 0.00 | 0.00 | 0.00 | 39 | 1008.8 |
| 20260510111703 | 77 | 112 | 6.0 | 14.0 | 0.00 | 0.00 | 0.00 | 39 | 1009.0 |
| 20260510110703 | 77 | 112 | 4.0 | 10.0 | 0.00 | 0.00 | 0.00 | 40 | 1009.0 |
| 20260510105703 | 75 | 112 | 6.0 | 12.0 | 0.00 | 0.00 | 0.00 | 42 | 1009.2 |
| 20260510104702 | 76 | 90 | 5.0 | 10.0 | 0.00 | 0.00 | 0.00 | 43 | 1009.3 |
| 20260510103702 | 75 | 90 | 5.0 | 12.0 | 0.00 | 0.00 | 0.00 | 45 | 1009.4 |
| 20260510102704 | 74 | 90 | 5.0 | 16.0 | 0.00 | 0.00 | 0.00 | 44 | 1009.5 |
| 20260510101703 | 73 | 112 | 7.0 | 14.0 | 0.00 | 0.00 | 0.00 | 45 | 1009.7 |
| 20260510100703 | 73 | 90 | 5.0 | 13.0 | 0.00 | 0.00 | 0.00 | 46 | 1009.8 |
| 20260510095703 | 73 | 112 | 4.0 | 10.0 | 0.00 | 0.00 | 0.00 | 48 | 1010.1 |
| 20260510094703 | 73 | 112 | 5.0 | 10.0 | 0.00 | 0.00 | 0.00 | 48 | 1010.1 |
| 20260510093703 | 73 | 90 | 6.0 | 15.0 | 0.00 | 0.00 | 0.00 | 48 | 1010.2 |
| 20260510092703 | 72 | 112 | 5.0 | 10.0 | 0.00 | 0.00 | 0.00 | 50 | 1010.4 |
| 20260510091703 | 72 | 112 | 3.0 | 9.0 | 0.00 | 0.00 | 0.00 | 54 | 1010.5 |
| 20260510090703 | 71 | 135 | 3.0 | 8.0 | 0.00 | 0.00 | 0.00 | 55 | 1010.6 |
| 20260510085703 | 69 | 68 | 2.0 | 5.0 | 0.00 | 0.00 | 0.00 | 61 | 1010.7 |
| 20260510084703 | 68 | 68 | 4.0 | 7.0 | 0.00 | 0.00 | 0.00 | 62 | 1010.8 |
| 20260510083703 | 67 | 68 | 4.0 | 10.0 | 0.00 | 0.00 | 0.00 | 62 | 1010.9 |
| 20260510082703 | 67 | 45 | 4.0 | 7.0 | 0.00 | 0.00 | 0.00 | 64 | 1010.9 |
| 20260510081703 | 66 | 45 | 4.0 | 9.0 | 0.00 | 0.00 | 0.00 | 65 | 1010.9 |
| 20260510080703 | 65 | 45 | 5.0 | 9.0 | 0.00 | 0.00 | 0.00 | 66 | 1010.9 |
| 20260510075703 | 65 | 68 | 3.0 | 7.0 | 0.00 | 0.00 | 0.00 | 66 | 1011.1 |
| 20260510074703 | 65 | 68 | 2.0 | 5.0 | 0.00 | 0.00 | 0.00 | 67 | 1011.2 |
| 20260510073703 | 64 | 22 | 3.0 | 5.0 | 0.00 | 0.00 | 0.00 | 68 | 1011.2 |
| 20260510072703 | 63 | 68 | 2.0 | 4.0 | 0.00 | 0.00 | 0.00 | 70 | 1011.3 |
| 20260510071703 | 62 | 68 | 3.0 | 4.0 | 0.00 | 0.00 | 0.00 | 71 | 1011.4 |
| 20260510070703 | 61 | 68 | 2.0 | 4.0 | 0.00 | 0.00 | 0.00 | 71 | 1011.4 |
| 20260510065703 | 60 | 68 | 2.0 | 4.0 | 0.00 | 0.00 | 0.00 | 73 | 1011.4 |
| 20260510064703 | 59 | 45 | 2.0 | 5.0 | 0.00 | 0.00 | 0.00 | 75 | 1011.5 |
| 20260510063703 | 58 | 68 | 2.0 | 5.0 | 0.00 | 0.00 | 0.00 | 77 | 1011.4 |
| 20260510062703 | 57 | 45 | 3.0 | 5.0 | 0.00 | 0.00 | 0.00 | 77 | 1011.6 |
| 20260510061703 | 56 | 45 | 3.0 | 5.0 | 0.00 | 0.00 | 0.00 | 78 | 1011.6 |
| 20260510060703 | 56 | 45 | 3.0 | 6.0 | 0.00 | 0.00 | 0.00 | 79 | 1011.7 |
| 20260510055703 | 55 | 45 | 3.0 | 6.0 | 0.00 | 0.00 | 0.00 | 81 | 1011.8 |
| 20260510054703 | 54 | 315 | 2.0 | 4.0 | 0.00 | 0.00 | 0.00 | 82 | 1012.0 |
| 20260510053703 | 53 | 315 | 1.0 | 3.0 | 0.00 | 0.00 | 0.00 | 83 | 1012.0 |
| 20260510052703 | 53 | 0 | 0.0 | 0.0 | 0.00 | 0.00 | 0.00 | 85 | 1012.0 |
| 20260510051702 | 52 | 0 | 0.0 | 0.0 | 0.00 | 0.00 | 0.00 | 86 | 1012.0 |
| 20260510050702 | 51 | 0 | 0.0 | 0.0 | 0.00 | 0.00 | 0.00 | 86 | 1012.0 |
| 20260510045702 | 51 | 0 | 0.0 | 0.0 | 0.00 | 0.00 | 0.00 | 87 | 1012.0 |
| 20260510044702 | 51 | 0 | 0.0 | 0.0 | 0.00 | 0.00 | 0.00 | 87 | 1012.0 |
| 20260510043702 | 50 | 315 | 0.0 | 1.0 | 0.00 | 0.00 | 0.00 | 87 | 1012.1 |
| 20260510042702 | 50 | 315 | 1.0 | 2.0 | 0.00 | 0.00 | 0.00 | 87 | 1012.1 |
| 20260510041702 | 50 | 315 | 2.0 | 3.0 | 0.00 | 0.00 | 0.00 | 87 | 1012.2 |
| 20260510040702 | 50 | 315 | 2.0 | 3.0 | 0.00 | 0.00 | 0.00 | 86 | 1012.3 |
| 20260510035702 | 50 | 315 | 1.0 | 3.0 | 0.00 | 0.00 | 0.00 | 85 | 1012.3 |
| 20260510034702 | 51 | 315 | 1.0 | 3.0 | 0.00 | 0.00 | 0.00 | 85 | 1012.2 |
| 20260510033702 | 51 | 315 | 1.0 | 3.0 | 0.00 | 0.00 | 0.00 | 85 | 1012.2 |
| 20260510032702 | 52 | 0 | 0.0 | 0.0 | 0.00 | 0.00 | 0.00 | 85 | 1012.2 |
| 20260510031702 | 52 | 0 | 0.0 | 0.0 | 0.00 | 0.00 | 0.00 | 84 | 1012.2 |
| 20260510030702 | 52 | 0 | 0.0 | 0.0 | 0.00 | 0.00 | 0.00 | 84 | 1012.3 |
| 20260510025702 | 52 | 0 | 0.0 | 0.0 | 0.00 | 0.00 | 0.00 | 84 | 1012.3 |
| 20260510024702 | 52 | 0 | 0.0 | 0.0 | 0.00 | 0.00 | 0.00 | 84 | 1012.3 |
| 20260510023702 | 52 | 0 | 0.0 | 0.0 | 0.00 | 0.00 | 0.00 | 84 | 1012.5 |
| 20260510022702 | 53 | 0 | 0.0 | 0.0 | 0.00 | 0.00 | 0.00 | 84 | 1012.5 |
| 20260510021702 | 53 | 0 | 0.0 | 0.0 | 0.00 | 0.00 | 0.00 | 84 | 1012.7 |
| 20260510020702 | 53 | 0 | 0.0 | 0.0 | 0.00 | 0.00 | 0.00 | 83 | 1012.7 |
| 20260510015702 | 53 | 0 | 0.0 | 0.0 | 0.00 | 0.00 | 0.00 | 83 | 1012.8 |
| 20260510014702 | 53 | 0 | 0.0 | 0.0 | 0.00 | 0.00 | 0.00 | 83 | 1012.8 |
| 20260510013702 | 54 | 0 | 0.0 | 0.0 | 0.00 | 0.00 | 0.00 | 82 | 1012.9 |
| 20260510012702 | 54 | 0 | 1.0 | 0.0 | 0.00 | 0.00 | 0.00 | 81 | 1012.9 |
| 20260510011702 | 58 | 292 | 1.0 | 1.0 | 0.00 | 0.00 | 0.00 | 72 | 1013.0 |
| 20260510010702 | 58 | 292 | 1.0 | 1.0 | 0.00 | 0.00 | 0.00 | 72 | 1013.0 |
| 20260510005702 | 58 | 292 | 1.0 | 1.0 | 0.00 | 0.00 | 0.00 | 72 | 1013.2 |
| 20260510004702 | 58 | 292 | 1.0 | 1.0 | 0.00 | 0.00 | 0.00 | 72 | 1013.2 |
| 20260510003702 | 58 | 292 | 1.0 | 1.0 | 0.00 | 0.00 | 0.00 | 72 | 1013.4 |
| 20260510002702 | 58 | 292 | 1.0 | 1.0 | 0.00 | 0.00 | 0.00 | 72 | 1013.4 |
| 20260510001702 | 58 | 292 | 1.0 | 1.0 | 0.00 | 0.00 | 0.00 | 72 | 1013.5 |
| 20260510000702 | 58 | 292 | 1.0 | 2.0 | 0.00 | 0.00 | 0.00 | 72 | 1013.6 |
| 20260509235701 | 58 | 292 | 1.0 | 2.0 | 0.00 | 0.00 | 0.00 | 72 | 1013.7 |
| 20260509234701 | 58 | 292 | 2.0 | 3.0 | 0.00 | 0.00 | 0.00 | 73 | 1013.9 |
| 20260509233701 | 59 | 360 | 2.0 | 3.0 | 0.00 | 0.00 | 0.00 | 73 | 1014.0 |
| 20260509232723 | 59 | 68 | 1.0 | 3.0 | 0.00 | 0.00 | 0.00 | 72 | 1013.9 |
| 20260509231723 | 59 | 68 | 1.0 | 2.0 | 0.00 | 0.00 | 0.00 | 71 | 1013.9 |
| 20260509230723 | 59 | 68 | 1.0 | 2.0 | 0.00 | 0.00 | 0.00 | 71 | 1014.0 |
| 20260509225723 | 60 | 68 | 1.0 | 3.0 | 0.00 | 0.00 | 0.00 | 71 | 1014.1 |
| 20260509224723 | 60 | 68 | 2.0 | 4.0 | 0.00 | 0.00 | 0.00 | 71 | 1014.1 |
| 20260509223723 | 60 | 68 | 1.0 | 2.0 | 0.00 | 0.00 | 0.00 | 71 | 1014.1 |
| 20260509222723 | 61 | 68 | 1.0 | 2.0 | 0.00 | 0.00 | 0.00 | 71 | 1014.1 |
| 20260509221723 | 61 | 68 | 1.0 | 4.0 | 0.00 | 0.00 | 0.00 | 70 | 1014.1 |
| 20260509220723 | 61 | 68 | 1.0 | 4.0 | 0.00 | 0.00 | 0.00 | 69 | 1014.1 |
| 20260509215723 | 61 | 68 | 2.0 | 6.0 | 0.00 | 0.00 | 0.00 | 69 | 1014.2 |
| 20260509214723 | 62 | 68 | 3.0 | 6.0 | 0.00 | 0.00 | 0.00 | 69 | 1014.2 |
| 20260509213723 | 62 | 45 | 4.0 | 8.0 | 0.00 | 0.00 | 0.00 | 68 | 1014.2 |
| 20260509212723 | 62 | 45 | 5.0 | 10.0 | 0.00 | 0.00 | 0.00 | 67 | 1014.2 |
| 20260509211723 | 63 | 45 | 4.0 | 8.0 | 0.00 | 0.00 | 0.00 | 67 | 1014.2 |
| 20260509210723 | 63 | 45 | 6.0 | 10.0 | 0.00 | 0.00 | 0.00 | 67 | 1014.2 |
| 20260509205723 | 63 | 68 | 5.0 | 10.0 | 0.00 | 0.00 | 0.00 | 67 | 1014.3 |
| 20260509204723 | 63 | 68 | 4.0 | 10.0 | 0.00 | 0.00 | 0.00 | 68 | 1014.4 |
| 20260509203723 | 63 | 68 | 4.0 | 8.0 | 0.00 | 0.00 | 0.00 | 68 | 1014.3 |
| 20260509202723 | 63 | 68 | 4.0 | 10.0 | 0.00 | 0.00 | 0.00 | 67 | 1014.4 |
| 20260509201723 | 64 | 68 | 5.0 | 10.0 | 0.00 | 0.00 | 0.00 | 66 | 1014.4 |
| 20260509200723 | 64 | 68 | 4.0 | 9.0 | 0.00 | 0.00 | 0.00 | 66 | 1014.4 |
| 20260509195723 | 64 | 68 | 4.0 | 8.0 | 0.00 | 0.00 | 0.00 | 66 | 1014.4 |
| 20260509194725 | 65 | 68 | 4.0 | 7.0 | 0.00 | 0.00 | 0.00 | 65 | 1014.4 |
| 20260509193725 | 65 | 45 | 5.0 | 10.0 | 0.00 | 0.00 | 0.00 | 64 | 1014.4 |
| 20260509192725 | 66 | 45 | 6.0 | 10.0 | 0.00 | 0.00 | 0.00 | 63 | 1014.3 |
| 20260509191725 | 66 | 68 | 4.0 | 11.0 | 0.00 | 0.00 | 0.00 | 62 | 1014.3 |
| 20260509190725 | 67 | 68 | 3.0 | 7.0 | 0.00 | 0.00 | 0.00 | 61 | 1014.3 |
| 20260509185725 | 67 | 45 | 3.0 | 6.0 | 0.00 | 0.00 | 0.00 | 61 | 1014.4 |
| 20260509184725 | 68 | 45 | 3.0 | 6.0 | 0.00 | 0.00 | 0.00 | 59 | 1014.3 |
| 20260509183724 | 69 | 45 | 2.0 | 4.0 | 0.00 | 0.00 | 0.00 | 58 | 1014.2 |
| 20260509182724 | 70 | 45 | 3.0 | 5.0 | 0.00 | 0.00 | 0.00 | 57 | 1014.0 |
| 20260509181724 | 70 | 45 | 3.0 | 6.0 | 0.00 | 0.00 | 0.00 | 56 | 1013.9 |
| 20260509180724 | 71 | 45 | 3.0 | 6.0 | 0.00 | 0.00 | 0.00 | 55 | 1014.0 |
| 20260509175724 | 71 | 45 | 4.0 | 9.0 | 0.00 | 0.00 | 0.00 | 54 | 1014.1 |
| 20260509174724 | 71 | 45 | 4.0 | 9.0 | 0.00 | 0.00 | 0.00 | 53 | 1014.1 |
| 20260509173724 | 71 | 45 | 7.0 | 13.0 | 0.00 | 0.00 | 0.00 | 53 | 1013.7 |
| 20260509172724 | 72 | 45 | 7.0 | 14.0 | 0.00 | 0.00 | 0.00 | 51 | 1013.7 |
| 20260509171724 | 72 | 68 | 5.0 | 11.0 | 0.00 | 0.00 | 0.00 | 49 | 1013.7 |
| 20260509170724 | 73 | 45 | 5.0 | 10.0 | 0.00 | 0.00 | 0.00 | 47 | 1013.7 |
| 20260509165724 | 73 | 338 | 5.0 | 10.0 | 0.00 | 0.00 | 0.00 | 48 | 1013.8 |
| 20260509164724 | 73 | 360 | 5.0 | 8.0 | 0.00 | 0.00 | 0.00 | 47 | 1014.0 |
| 20260509163724 | 74 | 338 | 5.0 | 10.0 | 0.00 | 0.00 | 0.00 | 46 | 1013.8 |
| 20260509162724 | 74 | 360 | 5.0 | 9.0 | 0.00 | 0.00 | 0.00 | 46 | 1014.1 |
| 20260509161724 | 74 | 338 | 4.0 | 9.0 | 0.00 | 0.00 | 0.00 | 46 | 1014.3 |
| 20260509160724 | 74 | 360 | 5.0 | 9.0 | 0.00 | 0.00 | 0.00 | 44 | 1014.3 |
| 20260509155724 | 75 | 338 | 4.0 | 8.0 | 0.00 | 0.00 | 0.00 | 45 | 1014.4 |
| 20260509154724 | 75 | 338 | 3.0 | 5.0 | 0.00 | 0.00 | 0.00 | 44 | 1014.6 |
| 20260509153724 | 75 | 338 | 3.0 | 6.0 | 0.00 | 0.00 | 0.00 | 43 | 1014.8 |
| 20260509152724 | 75 | 315 | 4.0 | 8.0 | 0.00 | 0.00 | 0.00 | 44 | 1014.8 |
| 20260509151724 | 75 | 360 | 5.0 | 11.0 | 0.00 | 0.00 | 0.00 | 45 | 1014.8 |
| 20260509150724 | 76 | 22 | 2.0 | 8.0 | 0.00 | 0.00 | 0.00 | 44 | 1014.9 |
| 20260509145724 | 76 | 45 | 2.0 | 6.0 | 0.00 | 0.00 | 0.00 | 42 | 1015.0 |
| 20260509144724 | 76 | 315 | 3.0 | 8.0 | 0.00 | 0.00 | 0.00 | 43 | 1015.0 |
| 20260509143724 | 76 | 360 | 2.0 | 5.0 | 0.00 | 0.00 | 0.00 | 43 | 1015.2 |
| 20260509142724 | 76 | 90 | 2.0 | 5.0 | 0.00 | 0.00 | 0.00 | 43 | 1015.2 |
| 20260509141724 | 76 | 135 | 1.0 | 5.0 | 0.00 | 0.00 | 0.00 | 44 | 1015.3 |
| 20260509140724 | 75 | 360 | 1.0 | 4.0 | 0.00 | 0.00 | 0.00 | 45 | 1015.3 |
| 20260509135724 | 74 | 22 | 3.0 | 8.0 | 0.00 | 0.00 | 0.00 | 47 | 1015.4 |
| 20260509134724 | 75 | 360 | 3.0 | 8.0 | 0.00 | 0.00 | 0.00 | 46 | 1015.6 |
| 20260509133724 | 75 | 315 | 3.0 | 6.0 | 0.00 | 0.00 | 0.00 | 46 | 1015.7 |
| 20260509132724 | 74 | 315 | 3.0 | 7.0 | 0.00 | 0.00 | 0.00 | 46 | 1015.8 |
| 20260509131723 | 74 | 338 | 3.0 | 8.0 | 0.00 | 0.00 | 0.00 | 48 | 1015.9 |
| 20260509130724 | 73 | 338 | 3.0 | 6.0 | 0.00 | 0.00 | 0.00 | 48 | 1016.0 |
| 20260509125723 | 73 | 360 | 2.0 | 5.0 | 0.00 | 0.00 | 0.00 | 49 | 1016.2 |
| 20260509124723 | 74 | 68 | 4.0 | 8.0 | 0.00 | 0.00 | 0.00 | 49 | 1016.2 |
| 20260509123723 | 74 | 68 | 2.0 | 6.0 | 0.00 | 0.00 | 0.00 | 50 | 1016.3 |